Regional Weather Roundup
Issued by NWS Sterling, VA

Home | Current Version | Previous Version | Graphics & Text | Print | Product List | Glossary On
Versions: 1 2 3 4 5 6 7 8 9 10 11 12 13 14 15 16 17 18 19 20 21 22 23 24 25 26 27 28 29 30 31 32 33 34 35 36 37 38 39 40 41 42 43 44 45 46 47 48 49 50
000
ASUS41 KLWX 210810
RWRLWX

REGIONAL WEATHER ROUNDUP
NATIONAL WEATHER SERVICE BALTIMORE MD/WASHINGTON DC
400 AM EDT THU AUG 21 2014

Note: "FAIR" indicates few or no clouds below 12,000 feet
with no significant weather and/or obstructions to visibility.
 TC=TEMPERATURE CELSIUS

 * =Non NWS site. Station does not report precipitation (e.g. rain,
    snow, etc.), thunder, or fog.

DCZ001-MDZ009-015-VAZ040>042-051-053>054-210900-
WASHINGTON METRO
  /KDAA//-FT BELVOIR

CITY           SKY/WX    TMP DP  RH WIND       PRES   REMARKS
WASHINGTON NAT PTCLDY    72  64  76 CALM      30.01S
DULLES         CLEAR     63  63 100 CALM      30.00S
ANDREWS AFB    MOCLDY    67  66  99 CALM      30.01R
QUANTICO       CLEAR     68  66  93 NW7       30.00S
COLLEGE PARK*  CLEAR     66  66 100 CALM      30.00S
LEESBURG*      CLEAR     64  64 100 CALM      30.01F FOG
MANASSAS*      CLEAR     64  64 100 CALM      30.01R
GAITHERSBURG*  CLEAR     64  63  94 CALM      30.04F

$$

MDZ006>007-011-014-210900-
BALTIMORE METRO

CITY           SKY/WX    TMP DP  RH WIND       PRES   REMARKS
BWI AIRPORT    PTCLDY    67  64  90 CALM      30.00S
MD SCIENCE CTR   N/A     73  68  84 MISG      30.00F
MARTIN STATE   CLEAR     72  70  94 S3        30.01S
ANNAPOLIS      PTCLDY    72  69  90 S5        29.99S
FORT MEADE*    CLEAR     63  61  94 CALM      30.02S

$$

MDZ012-015-019>023-210900-
MARYLAND EASTERN SHORE

CITY           SKY/WX    TMP DP  RH WIND       PRES   REMARKS
OCEAN CITY     CLOUDY    71  68  90 CALM      30.01S
SALISBURY      CLOUDY    70  65  84 CALM      30.01S
BAY BRIDGE AP*   N/A     72  68  88 SE3       30.00S
CAMBRIDGE*     CLOUDY    72  68  88 CALM      29.99F
EASTON*        PTCLDY    69  69 100 CALM      30.04S

$$

MDZ017>025-210900-
SOUTHERN MARYLAND

CITY           SKY/WX    TMP DP  RH WIND       PRES   REMARKS
PATUXENT RIVER CLOUDY    74  71  91 S3        29.99
ST INIGOES     CLOUDY    75  69  81 CALM      29.99S
LEONARDTOWN*   CLOUDY    72  68  88 CALM      30.01S

$$

MDZ003>005-210900-
NORTH CENTRAL MARYLAND

CITY           SKY/WX    TMP DP  RH WIND       PRES   REMARKS
FREDERICK*     FOG      N/A N/A N/A CALM      30.03S VSB 1/4
HAGERSTOWN APT CLEAR     67  63  87 CALM      30.01R
WESTMINSTER*   CLEAR     66  66 100 CALM      30.01F

$$

MDZ501>502-210900-
WESTERN MARYLAND

CITY           SKY/WX    TMP DP  RH WIND       PRES   REMARKS
OAKLAND*       MOCLDY    64 N/A N/A W7        30.10F
CUMBERLAND*    CLOUDY    70  68  94 CALM      30.05R

$$

VAZ025>031-210900-
SHENANDOAH VALLEY

CITY           SKY/WX    TMP DP  RH WIND       PRES   REMARKS
WINCHESTER*    FOG       68  68 100 W3        30.00F VSB 1/2
STAUNTON*      FOG       64  63  95 CALM      30.06S VSB<1/4

$$

WVZ021-048>050-054>055-210900-
EASTERN WEST VIRGINIA PANHANDLE

CITY           SKY/WX    TMP DP  RH WIND       PRES   REMARKS
MARTINSBURG    FOG       66  63  90 SW5       30.00F VSB 1/4
PETERSBURG*    NOT AVBL

$$

VAZ036>039-050-210900-
CENTRAL FOOTHILLS

CITY           SKY/WX    TMP DP  RH WIND       PRES   REMARKS
CHARLOTTESVILL FOG       67  66  97 CALM      30.01R VSB 3/4
ORANGE*        FOG       66  64  94 CALM      30.02F VSB 1/4

$$

VAZ055>057-210900-
NORTH AND CENTRAL PIEDMONT

CITY           SKY/WX    TMP DP  RH WIND       PRES   REMARKS
FREDERICKSBRG* FOG       68  68 100 CALM      29.99S VSB 1
STAFFORD*      FOG       64  64 100 CALM      30.04S VSB 1/2

$$

NCZ024-NYZ072-PAZ021-071-VAZ022-071-210900-
OTHER REGIONAL OBSERVATIONS

CITY           SKY/WX    TMP DP  RH WIND       PRES   REMARKS
NEW YORK CITY  CLOUDY    71  61  70 CALM      30.05F
PHILADELPHIA   MOCLDY    70  64  81 SE6       30.02S
PITTSBURGH     CLEAR     66  64  93 CALM      30.01R
ROANOKE        MOCLDY    67  65  93 W3        30.07R
RICHMOND       PTCLDY    72  69  90 N5        29.99R
RALEIGH        MOCLDY    72  70  93 CALM      29.99S FOG

$$

ANZ530>537-210900-
MARINE OBSERVATIONS

STATION/POSITION TIME  TEMP    WIND        PRES
                       AIR SEA DIR/SP/G
                 (UTC) (F)     (DEG/KT/KT) (MB)
THOMAS PT LIGHT  0800   74 78  170/  9/ 10 1016.3R
BALT KEY BRIDGE  0800   74     150/  6/  7 1015.3S
COVE POINT       0800   75     170/ 10/ 11 1015.5S
LEWISETTA        0800   75 80  170/  3/  4 1015.2S
SOLOMONS ISLAND  0800      80                N/A
PINEY POINT      0800          180/  6/  7   N/A

$$



USA.gov is the U.S. government's official web portal to all federal, state and local government web resources and services.